Flag Weather past 2 weeks in Milwaukee, Wisconsin, U.S.A.

Now
16 °F

Ice fog.


Feels Like: 16 °F
Forecast: 14 / 29 °F
Wind: No wind

Location: Milwaukee / Timmerman

Current Time: Nov 26, 2014 at 4:13:11 AM

Latest Report: Nov 26, 2014 at 3:35 AM


Visibility: 5 mi

Pressure: 30.17 "Hg

Humidity: 93%

Dew point: 14 °F

Location of MilwaukeeLocation

Historic Weather in Milwaukee — Graph

°F

Milwaukee temperature yesterday

Maximum temperature yesterday: 25 °F (at 12:15 AM)
Minimum temperature yesterday: 21 °F (at 4:45 PM)
Average temperature yesterday: 23 °F

Past Weeks' High & Low Weather Summary

 TemperatureHumidityPressure
High50 °F (Nov 23, 12:15 AM)100% (Nov 24, 12:35 AM)30.43 "Hg (Nov 24, 12:35 AM)
Low9 °F (Nov 17, 6:45 AM)26% (Nov 21, 3:45 PM)29.04 "Hg (Nov 24, 4:35 AM)
Average25 °F72%29.98 "Hg
* Reported Nov 11 2:15 AM — Nov 26 2:55 AM, Milwaukee, Weather by CustomWeather, © 2014

Note: Actual official high and low records may vary slightly from our data, if they occured in-between our weather recording intervals... More about our weather records

Advertising

Milwaukee weather history for previous 24 hours

 ConditionsComfort  
Time TempWeatherWind HumidityBarometerVisibility
2:55 AM
Nov 26
18 °FClear.No wind86%30.18 "Hg7 mi
2:35 AM19 °FPassing clouds.No wind79%30.18 "Hg7 mi
2:15 AM19 °FPassing clouds.3 mph79%30.18 "Hg7 mi
1:55 AM19 °FPassing clouds.No wind79%30.19 "Hg10 mi
1:15 AM19 °FOvercast.3 mph79%30.19 "Hg10 mi
12:55 AM21 °FOvercast.3 mph74%30.19 "Hg10 mi
12:15 AM21 °FOvercast.5 mph74%30.19 "Hg10 mi
11:55 PM
Nov 25
21 °FOvercast.3 mph74%30.19 "Hg10 mi
11:35 PM21 °FOvercast.5 mph74%30.19 "Hg10 mi
11:15 PM21 °FOvercast.6 mph80%30.18 "Hg10 mi
10:55 PM21 °FOvercast.5 mph80%30.18 "Hg10 mi
10:35 PM21 °FOvercast.3 mph80%30.18 "Hg10 mi
10:15 PM21 °FOvercast.6 mph80%30.17 "Hg10 mi
9:35 PM21 °FOvercast.3 mph80%30.17 "Hg10 mi
9:15 PM21 °FOvercast.3 mph80%30.17 "Hg10 mi
8:55 PM21 °FOvercast.No wind80%30.17 "Hg10 mi
8:35 PM21 °FOvercast.5 mph80%30.17 "Hg10 mi
8:15 PM21 °FOvercast.3 mph80%30.17 "Hg10 mi
7:45 PM21 °FOvercast.6 mph80%30.15 "Hg10 mi
6:45 PM21 °FOvercast.3 mph80%30.14 "Hg10 mi
4:45 PM21 °FOvercast.8 mph86%30.14 "Hg10 mi
3:45 PM23 °FOvercast.7 mph74%30.12 "Hg10 mi
2:45 PM23 °FOvercast.9 mph74%30.10 "Hg10 mi
1:45 PM25 °FOvercast.10 mph69%30.07 "Hg10 mi
12:45 PM25 °FOvercast.12 mph69%30.06 "Hg10 mi
11:45 AM25 °FCold.N/A74%30.05 "HgN/A
10:45 AM25 °FOvercast.10 mph74%30.05 "Hg10 mi
9:45 AM25 °FOvercast.13 mph74%30.02 "Hg10 mi
8:45 AM25 °FPartly sunny.12 mph74%30.01 "Hg10 mi
7:45 AM23 °FOvercast.10 mph80%29.98 "Hg10 mi
6:45 AM23 °FOvercast.12 mph80%29.96 "Hg10 mi
5:35 AM25 °FLight snow. Overcast.9 mph80%29.90 "Hg10 mi
5:15 AM25 °FOvercast.8 mph80%29.88 "Hg10 mi
4:55 AM25 °FLight snow. Overcast.10 mph80%29.87 "Hg10 mi
4:15 AM25 °FMostly cloudy.13 mph80%29.86 "Hg10 mi
Weather by CustomWeather, © 2014

See weather overviewHow to use our weather pages